Retour au catalogue

STARLINK-31840

ActifCommunicationsVLEO
NORAD 60127·PAYLOAD·🇺🇸 United States

Lancé Jun 24, 2024 depuis Vandenberg Space Force Base

Loading…

Prochains Passages (prochaines 24 heures)

TLE

FraisSource: CelesTrak SupGP

Époque: Sep 15, 2026, 03:05 UTC

1 60127C 24118Q   26258.12895833 -.00057888  00000+0 -18612-2 0  2589
2 60127  53.1589 225.5280 0001429  89.0486  76.6019 15.31735457    15

Suivez STARLINK-31840 en temps réel avec AllMySat

Download on the App Store